Location: Newark
(45.9456°N, 15.4064°E)
Time: 00:33:21
(UTC+00:00)

Vanguard 3 - Pass Details

Date: 26 January 2020
Orbit: 508 x 3263 km, 33.3° (Epoch: 23 February)

Event Time Altitude Azimuth Distance (km) Brightness Sun altitude
Rises 16:49:43 0° 241° (WSW) 6,997 13.8 -9.8°
Reaches altitude 10° 16:54:26 10° 237° (WSW) 6,120 12.9 -10.6°
Maximum altitude 17:13:05 51° 170° (S) 3,622 10.4 -13.7°
Enters shadow 17:26:39 14° 103° (ESE) 4,757 10.5 -16.0°
Drops below altitude 10° 17:28:02 10° 101° (E) 5,012 - -16.3°
Sets 17:31:26 0° 96° (E) 5,705 - -16.8°
